SCP
1 1 1 1 1 1 0 0 0 0 0 0 0 0 0 0 0 0 0 0 0 0 0 0 0 0 0 0 0 0 0 0 0 0 0 0 0 0 0 0 0 0 0
1 1 1 1 1 0 0 0 0 0 0 0 0 0 0 0 0 0 0 0 0 0 0 0 0 0 0 0 0 0 0 0 0 0 0 0 0 0 0 0 0 0 0
1 1 1 1 0 0 0 0 0 0 0 0 0 0 0 0 0 0 0 0 0 0 0 0 0 0 0 0 0 0 0 0 0 0 0 0 0 0 0 0 0 0 0
1 1 1 1 0 0 0 0 0 0 0 0 0 0 0 0 0 0 0 0 0 0 0 0 0 0 0 0 0 0 0 -0 0 0 0 0 0 0 0 0 0 0 0
1 1 1 0 0 0 0 0 0 0 0 0 0 0 0 0 0 0 0 0 0 0 0 0 0 0 0 0 0 0 0 0 0 0 0 0 0 0 0 0 0 0 0
1 1 1 0 0 0 0 0 0 0 0 0 0 0 0 0 0 0 0 0 0 0 0 0 0 0 0 0 0 0 0 0 0 0 0 0 0 0 0 0 0 0 0
1 1 1 0 0 0 0 0 0 0 0 0 0 0 0 0 0 0 0 0 0 0 0 0 0 0 0 0 0 0 0 0 0 0 0 0 0 0 0 0 0 0 0
1 1 1 0 0 0 0 0 0 0 0 0 0 0 0 0 0 0 0 0 0 0 0 0 0 0 0 0 0 0 0 0 0 0 0 -0 0 0 0 0 0 0 0
1 1 1 0 0 0 0 0 0 0 0 0 0 0 0 0 0 0 0 0 0 0 0 0 0 0 0 0 0 0 0 0 0 0 0 0 0 -0 0 0 0 0 0
1 1 0 0 0 0 0 0 0 0 0 0 0 0 0 0 0 0 0 0 0 0 0 0 0 0 0 0 0 0 0 0 0 0 0 0 0 0 0 0 0 0 0
1 1 0 0 0 0 0 0 0 0 0 0 0 0 0 0 0 0 0 0 0 0 0 0 0 0 0 0 0 0 0 0 0 0 0 0 0 0 0 0 0 0 0
1 1 0 0 0 0 0 0 0 0 0 0 0 0 0 0 0 0 0 0 0 0 0 0 0 0 0 0 0 0 0 0 0 0 0 0 0 0 0 0 0 0 0
0 0 0 0 0 0 0 0 0 0 0 0 0 0 0 0 0 0 0 0 0 0 0 0 0 0 0 0 0 0 0 0 0 0 0 0 0 0 0 0 0 0 0
0 0 0 0 0 0 0 0 0 0 0 0 0 0 0 0 0 0 0 0 0 0 0 0 0 0 0 0 0 0 0 0 0 0 0 0 0 0 0 0 0 0 0
0 0 0 0 0 0 0 0 0 0 0 0 0 0 0 0 0 0 0 0 0 0 0 0 0 0 0 0 0 0 0 0 0 0 0 0 0 0 0 0 0 0 0
0 0 0 0 0 0 0 0 0 0 0 0 0 0 0 0 0 0 0 0 0 0 0 0 0 0 0 0 0 0 0 0 0 0 0 0 0 0 0 0 0 0 0
0 0 0 0 0 0 0 0 0 0 0 0 0 0 0 0 0 0 0 0 0 0 0 0 0 0 0 0 0 0 0 0 0 0 0 0 0 0 0 0 0 0 0
0 0 0 0 0 0 0 0 0 0 0 0 0 0 0 0 0 0 0 0 0 0 0 0 0 0 0 0 0 0 0 0 0 0 0 0 0 0 0 0 0 0 0
0 0 0 0 0 0 0 0 0 0 0 0 0 0 0 0 0 0 0 0 0 0 0 0 0 0 0 0 0 0 0 0 0 0 0 0 0 0 0 0 0 0 0
0 0 0 0 0 0 0 0 0 0 0 0 0 0 0 0 0 0 0 0 0 0 0 0 0 0 0 0 0 0 0 0 0 0 0 0 0 0 0 0 0 0 0
0 0 0 0 0 0 0 0 0 0 0 0 0 0 0 0 0 0 0 0 0 0 0 0 0 0 0 0 0 0 0 0 0 0 0 0 0 0 0 0 0 0 0
0 0 0 0 0 0 1 1 0 0 0 0 0 0 0 0 0 0 0 0 0 0 0 0 0 0 0 0 0 0 0 0 0 0 0 0 0 0 0 0 0 0 0
0 0 0 0 0 0 0 0 0 0 0 0 0 0 0 0 0 0 0 0 0 0 0 0 0 0 0 0 0 0 0 0 0 0 0 0 0 0 0 0 0 0 0
0 0 0 0 0 0 0 0 0 0 0 0 0 0 0 0 0 0 0 0 0 0 0 0 0 0 0 0 0 0 0 0 0 0 0 0 0 0 0 0 0 0 0
0 0 0 0 0 0 0 0 0 0 0 0 0 0 0 0 0 0 0 0 0 0 0 0 0 0 0 0 0 0 0 0 0 0 0 0 0 0 0 0 0 0 0
0 0 0 0 1 0 0 0 0 0 0 0 0 0 0 0 0 0 0 0 0 0 0 0 0 0 0 0 0 0 0 0 0 0 0 0 0 0 0 0 0 0 0
Wind_Speed
10 11 11 12 11 10 10 9 8 8 7 6 5 5 4 4 3 3 5 5 5 5 4 3 3 3 3 2 2 2 2 1 1 2 2 3 2 1 0 1 2 2 3
10 11 11 11 11 11 10 9 9 8 7 5 4 4 5 4 3 3 4 5 5 5 5 4 3 3 3 3 3 3 2 1 2 2 2 2 4 3 1 1 1 2 1
15 14 13 11 11 11 11 10 8 8 7 6 5 5 4 4 3 3 2 3 4 4 4 4 4 4 3 3 2 3 3 2 2 1 3 3 1 2 3 2 1 0 1
14 13 13 12 12 11 10 9 8 7 7 7 7 9 6 5 4 3 3 3 4 5 5 5 5 4 3 3 2 3 2 3 2 2 2 2 3 2 1 3 2 2 1
15 14 14 13 12 11 10 9 8 7 7 7 8 8 6 4 4 4 5 3 3 4 5 5 5 4 3 3 3 3 3 2 2 2 1 2 2 2 2 1 3 3 2
15 13 12 11 10 10 10 9 9 7 7 7 7 8 8 7 7 5 5 3 2 3 4 5 5 4 3 3 3 3 4 3 3 2 2 2 2 1 2 1 1 2 3
15 15 15 14 12 12 11 10 10 8 7 8 7 8 9 9 9 7 6 5 3 2 3 4 4 4 3 3 3 3 3 3 3 2 2 2 1 1 2 2 0 1 2
15 16 16 15 14 14 13 12 11 8 8 8 7 7 8 6 5 6 6 5 4 3 4 4 4 4 4 4 3 3 2 2 3 3 2 1 1 1 1 2 2 1 3
15 15 15 14 14 14 13 13 12 9 9 8 8 7 7 6 6 6 5 4 4 4 5 5 5 4 4 4 4 2 2 2 2 2 2 1 1 1 1 1 2 3 1
13 14 14 15 14 13 12 12 11 10 9 9 8 7 7 7 7 6 7 6 5 5 6 5 5 4 3 3 3 2 2 2 1 1 2 1 0 1 1 1 1 2 3
15 15 14 14 13 12 12 12 11 9 8 9 7 7 7 7 7 7 7 7 5 6 6 6 5 4 4 3 3 2 2 2 1 1 2 1 1 1 1 1 1 1 2
15 15 15 14 14 14 14 13 12 11 10 9 8 8 7 7 7 7 7 7 7 6 6 6 5 4 4 4 4 3 2 3 2 2 2 1 1 1 0 1 0 0 1
13 13 14 15 15 15 14 14 13 12 10 9 9 8 8 8 8 7 7 7 7 6 5 5 5 4 4 4 4 4 3 3 3 3 3 3 2 1 1 1 1 1 0
15 15 15 15 15 15 15 14 13 12 11 10 10 10 9 9 8 8 7 7 7 7 6 5 5 5 4 4 4 4 3 2 2 3 3 3 4 4 3 2 2 1 1
15 17 17 16 15 15 14 14 14 13 12 12 11 10 9 8 8 8 8 7 7 7 6 5 5 4 4 5 5 4 4 3 2 2 3 4 6 7 5 4 3 3 2
16 18 18 17 18 18 16 15 14 13 13 13 12 10 9 9 9 9 8 7 7 6 6 6 6 5 4 7 8 6 4 3 3 3 3 4 5 7 8 8 8 7 5
15 17 18 19 19 18 17 17 15 13 13 12 11 11 11 10 10 10 9 8 8 6 6 6 6 5 6 8 9 9 5 4 4 4 4 4 4 5 4 6 8 8 10
14 15 16 17 16 16 15 15 14 14 14 13 12 12 12 11 10 9 9 8 6 6 6 6 6 6 7 10 10 9 5 4 5 5 5 5 6 6 5 5 5 6 6
11 12 14 15 15 16 16 15 14 14 14 14 14 13 13 12 11 11 10 7 6 6 6 6 7 7 7 11 11 9 4 4 5 5 5 6 7 9 9 6 6 7 7
7 8 9 10 13 14 15 16 15 15 16 15 14 13 13 13 12 11 9 6 6 7 6 6 6 7 7 10 12 10 4 4 5 4 5 8 9 10 10 6 6 8 9
7 9 10 11 12 13 15 15 15 16 15 13 12 12 12 12 11 9 7 6 6 6 6 6 6 6 7 9 12 11 5 5 5 4 4 5 8 10 11 9 7 11 9
7 9 9 9 10 12 15 14 14 13 11 12 12 12 11 10 9 8 7 7 7 7 6 5 5 5 6 7 10 13 12 9 6 6 5 5 8 9 10 8 10 13 9
8 9 10 9 8 10 13 15 12 10 11 11 12 11 11 9 9 9 8 6 6 6 6 5 5 5 4 5 10 12 13 13 8 6 8 8 9 8 7 10 12 9 5
6 7 9 10 9 9 9 10 10 11 11 11 10 9 9 8 8 7 7 6 7 6 6 6 6 5 4 4 4 4 5 8 7 6 7 8 9 7 8 8 7 5 5
5 6 8 9 8 8 7 7 9 11 11 10 9 8 8 8 7 6 7 7 7 8 8 7 6 6 6 7 9 6 5 5 5 3 2 2 3 4 4 4 5 5 4
6 6 7 7 7 7 6 6 8 11 11 8 8 7 6 6 6 5 4 7 7 10 11 10 8 7 9 8 9 10 9 8 7 4 3 4 4 5 5 5 5 4 5
Wind_Direction
158 151 150 148 142 142 142 147 147 147 142 137 136 137 139 137 129 127 120 113 110 107 104 103 97 98 100 104 102 98 80 55 74 70 25 354 348 335 205 180 170 194 215
154 154 153 153 153 151 149 150 152 153 151 147 142 140 137 133 131 120 110 115 115 113 112 111 108 103 98 85 75 84 90 45 63 110 90 21 353 341 333 285 199 198 200
164 163 161 159 157 156 158 159 160 155 150 139 127 121 102 94 93 106 110 120 121 115 110 112 109 103 102 103 90 90 102 90 30 79 130 132 206 307 331 335 340 206 202
163 163 162 160 163 163 160 155 156 153 150 144 144 146 143 145 158 150 136 122 120 120 114 114 111 107 103 107 98 90 96 103 72 24 47 123 151 136 348 337 341 331 269
164 167 167 166 166 162 159 157 155 156 154 150 150 147 142 142 138 129 124 116 109 114 114 115 113 109 104 106 95 89 87 97 109 89 61 55 51 75 118 328 329 338 319
169 166 165 161 163 162 159 158 157 158 155 151 152 148 149 146 140 140 139 130 115 106 116 116 113 112 108 108 104 99 94 93 93 89 85 97 95 84 110 140 299 311 307
171 168 167 166 166 166 165 162 160 161 160 156 159 157 154 152 153 155 152 145 136 133 138 123 121 119 120 117 109 101 94 94 95 97 94 100 123 149 139 124 116 330 316
174 175 174 170 169 170 168 166 165 163 163 160 161 157 151 151 153 156 152 154 156 157 150 137 134 131 126 119 106 103 107 99 93 89 94 87 67 98 137 148 135 50 344
176 175 173 172 170 171 171 170 167 164 165 163 158 154 152 150 152 152 149 152 153 153 148 143 137 136 130 124 115 106 113 114 104 99 94 92 52 59 87 123 140 140 131
176 177 176 175 174 172 168 168 167 168 167 164 165 161 158 157 152 147 151 153 152 147 147 145 143 143 139 135 121 119 130 120 129 138 111 93 65 49 57 80 103 134 154
179 179 178 175 172 168 167 169 170 166 167 168 165 157 159 156 150 150 155 153 150 150 152 153 151 152 151 147 136 146 149 141 148 147 143 162 155 86 43 64 78 101 138
180 178 174 170 170 171 172 173 174 174 175 170 165 164 161 157 156 156 157 153 153 157 158 155 156 163 165 165 163 167 162 163 176 191 168 198 168 133 136 104 89 147 162
181 175 171 173 175 175 176 176 178 177 175 170 168 168 167 165 166 165 161 157 158 161 163 162 167 175 176 179 181 176 181 187 195 195 191 203 178 198 211 188 198 243 210
181 177 177 178 179 178 177 177 179 177 174 173 173 175 177 174 172 169 166 165 164 165 170 174 178 181 178 177 181 181 186 200 215 212 206 207 198 203 206 201 208 217 250
183 183 182 180 179 178 178 178 178 177 176 175 178 183 180 173 169 169 170 169 170 174 175 175 181 183 182 188 187 188 189 198 224 236 228 224 217 213 207 203 204 199 211
188 187 184 180 181 181 180 179 179 178 175 177 182 180 174 173 173 174 173 172 176 176 175 181 184 192 200 197 195 187 190 195 207 230 244 249 241 233 232 225 214 198 201
187 187 187 185 185 183 180 181 179 175 175 179 179 177 177 178 179 178 175 179 182 179 182 189 186 193 205 203 202 198 186 199 211 221 233 248 241 231 232 244 246 239 236
186 188 188 186 184 181 178 176 172 173 177 179 180 180 180 182 179 177 181 184 181 182 188 192 192 195 211 209 209 208 201 214 227 229 227 233 246 241 227 234 249 254 253
189 188 186 183 177 178 174 170 172 175 179 183 184 183 182 180 180 184 186 185 180 187 191 191 192 198 217 216 215 207 199 225 243 247 240 232 238 246 236 227 244 262 268
178 184 177 168 173 176 169 169 174 177 184 186 185 182 179 180 184 187 184 179 182 191 191 199 201 202 214 219 217 205 197 225 246 258 259 248 242 246 241 227 233 252 263
174 171 163 168 173 168 165 171 176 185 187 179 174 175 177 179 180 178 175 173 178 183 192 203 209 209 213 217 217 209 201 216 233 248 256 255 252 247 243 235 231 243 254
163 161 160 165 165 163 165 171 183 183 170 167 170 174 176 180 178 173 177 177 178 185 196 205 218 223 219 215 218 215 215 212 216 236 244 248 254 252 252 247 246 253 260
159 159 158 156 158 166 169 176 181 166 161 166 170 173 173 176 171 174 179 180 183 188 196 203 216 227 224 222 222 220 222 221 219 237 243 250 258 264 262 256 258 261 247
147 146 148 154 164 170 173 174 161 157 158 166 170 170 171 173 173 177 180 182 187 193 200 208 217 224 227 227 221 220 226 229 232 245 256 262 267 264 262 268 268 251 237
116 132 145 155 165 162 162 160 156 154 157 162 163 166 170 172 176 181 187 190 200 197 199 208 206 205 223 228 214 203 211 211 218 214 242 260 268 270 269 268 265 260 253
109 116 128 140 150 149 150 152 157 157 156 158 165 169 171 175 176 180 197 214 210 210 209 210 205 216 222 219 211 212 217 217 200 177 222 242 246 251 257 265 272 265 257